Oakland, MD

2:08 AM EDT on April 30, 2017 (GMT -0400)
Oakland

Weather History for K2G4 - December, 2011

Change the Weather History Date:

Monday, December 12, 2011

  Actual Average (KMGW) Record (KMGW)
Temperature  
Mean Temperature 32 °F -  
Max Temperature 39 °F 45 °F 71 °F (1965)
Min Temperature 24 °F 28 °F 0 °F (2010)
Degree Days  
Heating Degree Days 34    
Moisture  
Dew Point 6 °F    
Average Humidity 36    
Maximum Humidity 64    
Minimum Humidity 20    
Precipitation  
Precipitation 0.00 in - - ()
Sea Level Pressure  
Sea Level Pressure 30.39 in    
Wind  
Wind Speed 7 mph (SSW)    
Max Wind Speed 10 mph    
Max Gust Speed -    
Visibility 10 miles    
Events      
Averages and records for this station are not official NWS values.
T = Trace of Precipitation, MM = Missing Value Source: NWS Daily Summary

Daily Weather History Graph

Daily Weather History Graph

Search for Another Location

Airport or City:

Trip Planner

Search our weather history database for the weather conditions in past years. The results will help you decide how hot, cold, wet, or windy it might be!

Date:

Astronomy

Dec. 12, 2011 Rise Set
Actual Time 7:28 AM EST 4:53 PM EST
Civil Twilight 6:58 AM EST 5:23 PM EST
Nautical Twilight 6:24 AM EST 5:57 PM EST
Astronomical Twilight 5:51 AM EST 6:30 PM EST
Moon 7:02 PM EST (12/12) 8:59 AM EST (12/12)
Length of Visible Light 10h 25m
Length of Day
9h 25m
Waning Gibbous, 96% of the Moon is Illuminated
Dec 12
Waning Gibbous
Dec 17
Last Quarter
Dec 24
New
Jan 1
First Quarter
Jan 9
Full

Hourly Weather History & Observations

Time (EST) Temp. Windchill Dew Point Humidity Pressure Visibility Wind Dir Wind Speed Gust Speed Precip Events Conditions
12:15 AM 24.8 °F 14.6 °F 12.2 °F 59% 30.42 in 10.0 mi SE 10.4 mph - N/A   Clear
12:35 AM 24.8 °F 14.6 °F 12.2 °F 59% 30.42 in 10.0 mi SE 10.4 mph - N/A   Clear
12:50 AM 24.8 °F 15.3 °F 14.0 °F 64% 30.42 in 10.0 mi SE 9.2 mph - N/A   Clear
1:10 AM 24.8 °F 16.1 °F 12.2 °F 59% 30.41 in 10.0 mi SSE 8.1 mph - N/A   Clear
1:30 AM 24.8 °F 15.3 °F 12.2 °F 59% 30.40 in 10.0 mi SSE 9.2 mph - N/A   Clear
2:10 AM 24.8 °F 16.1 °F 12.2 °F 59% 30.40 in 10.0 mi SE 8.1 mph - N/A   Clear
2:30 AM 24.8 °F 16.1 °F 12.2 °F 59% 30.40 in 10.0 mi SSE 8.1 mph - N/A   Clear
2:50 AM 24.8 °F 16.1 °F 12.2 °F 59% 30.40 in 10.0 mi SSE 8.1 mph - N/A   Clear
3:05 AM 24.8 °F 16.1 °F 12.2 °F 59% 30.40 in 10.0 mi SSE 8.1 mph - N/A   Clear
3:25 AM 24.8 °F 16.9 °F 12.2 °F 59% 30.40 in 10.0 mi SSE 6.9 mph - N/A   Clear
3:45 AM 24.8 °F 16.9 °F 12.2 °F 59% 30.39 in 10.0 mi SSE 6.9 mph - N/A   Clear
4:05 AM 24.8 °F 16.9 °F 12.2 °F 59% 30.39 in 10.0 mi SSE 6.9 mph - N/A   Clear
4:25 AM 26.6 °F 20.0 °F 10.4 °F 51% 30.38 in 10.0 mi SSE 5.8 mph - N/A   Clear
4:45 AM 28.4 °F 21.2 °F 8.6 °F 43% 30.38 in 10.0 mi SSE 6.9 mph - N/A   Clear
5:05 AM 28.4 °F 21.2 °F 5.0 °F 37% 30.37 in 10.0 mi SE 6.9 mph - N/A   Clear
5:25 AM 28.4 °F 21.2 °F 3.2 °F 34% 30.37 in 10.0 mi SSE 6.9 mph - N/A   Clear
5:40 AM 30.2 °F 22.6 °F 1.4 °F 29% 30.37 in 10.0 mi SSE 8.1 mph - N/A   Clear
6:00 AM 26.6 °F 19.1 °F 8.6 °F 47% 30.38 in 10.0 mi SSE 6.9 mph - N/A   Clear
6:20 AM 28.4 °F 20.4 °F 3.2 °F 34% 30.38 in 10.0 mi SSE 8.1 mph - N/A   Clear
6:40 AM 30.2 °F 24.3 °F -0.4 °F 27% 30.38 in 10.0 mi SSE 5.8 mph - N/A   Clear
7:00 AM 30.2 °F 25.4 °F 1.4 °F 29% 30.38 in 10.0 mi South 4.6 mph - N/A   Clear
7:20 AM 32.0 °F 26.4 °F -4.0 °F 21% 30.39 in 10.0 mi South 5.8 mph - N/A   Clear
7:40 AM 32.0 °F 27.5 °F -4.0 °F 21% 30.38 in 10.0 mi South 4.6 mph - N/A   Clear
7:55 AM 32.0 °F 26.4 °F -5.8 °F 20% 30.39 in 10.0 mi SSW 5.8 mph - N/A   Clear
8:15 AM 32.0 °F 27.5 °F -4.0 °F 21% 30.39 in 10.0 mi SSW 4.6 mph - N/A   Clear
8:35 AM 32.0 °F 27.5 °F -4.0 °F 21% 30.39 in 10.0 mi SW 4.6 mph - N/A   Clear
8:55 AM 33.8 °F 28.6 °F -4.0 °F 20% 30.39 in 10.0 mi SW 5.8 mph - N/A   Clear
9:15 AM 33.8 °F 29.6 °F -2.2 °F 22% 30.40 in 10.0 mi WSW 4.6 mph - N/A   Clear
9:35 AM 33.8 °F 30.8 °F -0.4 °F 23% 30.40 in 10.0 mi WSW 3.5 mph - N/A   Clear
9:55 AM 35.6 °F 31.7 °F -2.2 °F 20% 30.40 in 10.0 mi WSW 4.6 mph - N/A   Clear
10:10 AM 35.6 °F 30.7 °F -0.4 °F 22% 30.41 in 10.0 mi WSW 5.8 mph - N/A   Clear
10:30 AM 35.6 °F 31.7 °F -0.4 °F 22% 30.41 in 10.0 mi WSW 4.6 mph - N/A   Clear
10:50 AM 37.4 °F 34.9 °F -0.4 °F 20% 30.41 in 10.0 mi West 3.5 mph - N/A   Clear
11:10 AM 37.4 °F 33.8 °F 1.4 °F 22% 30.41 in 10.0 mi West 4.6 mph - N/A   Clear
11:30 AM 37.4 °F 32.8 °F 3.2 °F 24% 30.41 in 10.0 mi WNW 5.8 mph - N/A   Clear
11:50 AM 37.4 °F 34.9 °F 5.0 °F 26% 30.40 in 10.0 mi WNW 3.5 mph - N/A   Clear
12:10 PM 37.4 °F 34.9 °F 5.0 °F 26% 30.40 in 10.0 mi NNW 3.5 mph - N/A   Clear
12:25 PM 37.4 °F - 5.0 °F 26% 30.39 in 10.0 mi Calm Calm - N/A   Clear
12:45 PM 37.4 °F 34.9 °F 5.0 °F 26% 30.39 in 10.0 mi SW 3.5 mph - N/A   Clear
1:05 PM 37.4 °F 33.8 °F 6.8 °F 28% 30.39 in 10.0 mi WSW 4.6 mph - N/A   Clear
1:25 PM 39.2 °F 37.0 °F 8.6 °F 28% 30.39 in 10.0 mi WSW 3.5 mph - N/A   Clear
1:45 PM 39.2 °F 35.9 °F 8.6 °F 28% 30.39 in 10.0 mi WSW 4.6 mph - N/A   Clear
2:05 PM 39.2 °F 35.0 °F 5.0 °F 24% 30.38 in 10.0 mi SW 5.8 mph - N/A   Clear
2:25 PM 39.2 °F 37.0 °F 6.8 °F 26% 30.38 in 10.0 mi WSW 3.5 mph - N/A   Clear
2:40 PM 39.2 °F - 8.6 °F 28% 30.38 in 10.0 mi Calm Calm - N/A   Clear
3:00 PM 37.4 °F 32.8 °F 6.8 °F 28% 30.38 in 10.0 mi West 5.8 mph - N/A   Clear
3:20 PM 35.6 °F 31.7 °F 8.6 °F 33% 30.38 in 10.0 mi WSW 4.6 mph - N/A   Clear
3:40 PM 35.6 °F 30.7 °F 8.6 °F 33% 30.37 in 10.0 mi West 5.8 mph - N/A   Clear
4:00 PM 35.6 °F 30.7 °F 8.6 °F 33% 30.38 in 10.0 mi West 5.8 mph - N/A   Clear
4:20 PM 33.8 °F 29.6 °F 10.4 °F 38% 30.38 in 10.0 mi West 4.6 mph - N/A   Clear
4:40 PM 33.8 °F 29.6 °F 10.4 °F 38% 30.38 in 10.0 mi West 4.6 mph - N/A   Clear
4:55 PM 32.0 °F 26.4 °F 10.4 °F 41% 30.38 in 10.0 mi West 5.8 mph - N/A   Clear
5:15 PM 32.0 °F 27.5 °F 12.2 °F 44% 30.37 in 10.0 mi WSW 4.6 mph - N/A   Clear
5:35 PM 32.0 °F 27.5 °F 12.2 °F 44% 30.37 in 10.0 mi West 4.6 mph - N/A   Clear
5:55 PM 32.0 °F 27.5 °F 12.2 °F 44% 30.37 in 10.0 mi WSW 4.6 mph - N/A   Clear
6:15 PM 32.0 °F 27.5 °F 12.2 °F 44% 30.37 in 10.0 mi WSW 4.6 mph - N/A   Clear
6:35 PM 32.0 °F 26.4 °F 12.2 °F 44% 30.37 in 10.0 mi WSW 5.8 mph - N/A   Clear
6:55 PM 32.0 °F 25.6 °F 14.0 °F 48% 30.37 in 10.0 mi WSW 6.9 mph - N/A   Clear
7:10 PM 32.0 °F 26.4 °F 14.0 °F 48% 30.37 in 10.0 mi WSW 5.8 mph - N/A   Clear
7:50 PM 32.0 °F 25.6 °F 14.0 °F 48% 30.38 in 10.0 mi West 6.9 mph - N/A   Clear
8:10 PM 32.0 °F 25.6 °F 14.0 °F 48% 30.38 in 10.0 mi West 6.9 mph - N/A   Clear
8:30 PM 32.0 °F 25.6 °F 14.0 °F 48% 30.38 in 10.0 mi West 6.9 mph - N/A   Clear
8:50 PM 32.0 °F 26.4 °F 14.0 °F 48% 30.38 in 10.0 mi West 5.8 mph - N/A   Clear
9:10 PM 32.0 °F 26.4 °F 14.0 °F 48% 30.38 in 10.0 mi West 5.8 mph - N/A   Clear
9:25 PM 32.0 °F 26.4 °F 14.0 °F 48% 30.38 in 10.0 mi West 5.8 mph - N/A   Clear
9:45 PM 32.0 °F 26.4 °F 14.0 °F 48% 30.37 in 10.0 mi WSW 5.8 mph - N/A   Clear
10:05 PM 32.0 °F 26.4 °F 14.0 °F 48% 30.37 in 10.0 mi West 5.8 mph - N/A   Clear
10:25 PM 32.0 °F 26.4 °F 14.0 °F 48% 30.38 in 10.0 mi WSW 5.8 mph - N/A   Clear
10:45 PM 32.0 °F 25.6 °F 14.0 °F 48% 30.38 in 10.0 mi WSW 6.9 mph - N/A   Clear
11:05 PM 32.0 °F 26.4 °F 14.0 °F 48% 30.37 in 10.0 mi WSW 5.8 mph - N/A   Clear
11:25 PM 32.0 °F 26.4 °F 14.0 °F 48% 30.37 in 10.0 mi West 5.8 mph - N/A   Clear
11:45 PM 32.0 °F 26.4 °F 14.0 °F 48% 30.38 in 10.0 mi WSW 5.8 mph - N/A   Clear